sat.trackr.live / text

‹ back to catalog

ONEWEB-0377

NORAD 49303 · 2021-090AA

PAYLOAD ACTIVE UNKNOWN

§ Identity

Operator
Country
UK
Launch date
2021-10-14
Launch site
VOSTO
Launch vehicle
Mass (kg)
RCS (m²)

Purposes: comms

External: N2YO · Heavens-Above · Gunter

§ Orbital elements

Epoch: 2026-09-19T22:25:15.509856Z

Period
109.03 min
Inclination
87.9144°
Eccentricity
0.0002247
Mean motion
13.20772892 rev/d
Perigee alt
1,180.1 km
Apogee alt
1,183.5 km
Semi-major
7,559.9 km
B*
2.0511e-4
RAAN
255.5342°
Arg perigee
92.1104°
Mean anomaly
268.0286°
Rev number
24,302

§ Raw data

ONEWEB-03771 49303U 21090AA  26262.93420729  .00000096  00000+0  20511-3 0  99912 49303  87.9144 255.5342 0002247  92.1104 268.0286 13.20772892243026

JSON: /api/v1/satellites/49303 · /tle

For live sub-satellite position, see the globe view (requires WebGL).

§ Visibility from observer

Set your observer location to see the next 7 days of passes ≥ 10°. The values pass through the URL so the page stays shareable.

No JS? Fill the form by hand. The geolocation button needs JavaScript.